Theta_e
298 299 298 298 298 298 298 298 299 299 300 301 300 299 299 300 300 300 300 301 301 301 300 300 300 300 301 302 301 301 302 301 301 302 303 304 304 304 304 304 304 305 305 307 308 306 305 305 305 306 307 308 307 305 305 306 305 307 308 308 312 314 313 311 311 310 310 308 308 308 309 310 309 310 310 310 312 313 312 314 315 315 317 319 317 313 318
298 299 299 298 298 297 298 298 299 300 301 301 300 299 300 300 300 300 300 301 301 300 300 300 301 301 302 303 302 302 302 302 303 303 303 304 304 304 305 305 305 305 306 308 309 307 306 305 304 306 307 307 306 305 305 306 306 307 308 310 313 312 311 311 311 311 311 310 310 309 308 309 310 311 310 309 311 313 314 314 314 315 318 319 316 313 320
298 299 299 299 298 298 298 298 299 301 302 301 300 300 300 300 300 300 300 301 301 301 301 301 302 302 303 303 303 304 304 303 304 304 304 304 304 304 305 305 305 305 305 309 310 309 307 306 305 306 306 307 306 304 304 307 307 307 308 310 312 311 311 313 312 311 312 312 312 311 310 309 311 311 309 309 311 312 314 314 312 313 317 319 316 314 323
297 298 299 299 298 298 298 298 299 302 302 302 301 300 301 300 299 300 300 300 300 301 301 301 302 302 302 303 304 305 305 305 304 304 304 305 304 304 305 305 305 305 307 311 313 311 311 308 305 306 308 310 309 305 304 306 306 308 310 311 313 314 313 314 316 315 312 312 313 311 310 309 310 311 310 309 310 313 315 314 313 313 316 318 318 322 329
297 298 298 299 298 298 298 298 300 302 302 302 301 301 301 300 300 300 300 300 300 300 301 301 301 302 302 303 304 304 305 305 306 305 306 306 305 305 305 304 306 308 311 314 315 314 313 308 305 309 311 313 312 307 304 306 307 311 313 311 314 315 311 312 318 317 314 313 313 312 312 312 311 312 312 310 310 314 316 314 316 318 316 316 320 327 332
298 297 298 298 298 298 299 299 300 301 302 302 302 301 301 301 301 300 301 301 302 302 302 302 302 302 302 303 303 304 304 305 306 306 306 307 306 306 306 305 307 309 311 315 317 316 315 311 309 312 314 314 313 308 306 306 309 314 314 311 315 315 310 312 317 317 315 315 315 315 317 316 313 312 313 311 311 314 315 317 321 320 315 315 324 329 330
298 298 297 298 298 298 298 299 299 300 301 302 302 302 302 301 301 301 301 302 302 303 303 302 303 303 303 303 304 304 305 305 307 308 308 308 307 306 308 310 311 311 311 314 318 316 315 314 314 315 317 317 315 311 308 307 310 314 313 311 315 314 311 316 319 318 318 316 316 317 318 318 317 317 315 313 313 315 315 319 322 322 323 324 327 332 330
298 298 297 297 297 298 299 299 299 299 300 302 302 302 301 301 301 302 302 302 302 302 302 302 303 304 304 305 305 305 305 307 309 309 310 311 310 308 309 311 312 311 311 313 316 314 314 316 316 316 317 318 317 316 313 309 309 313 312 311 313 311 312 318 320 317 318 317 317 317 317 319 321 322 319 315 314 315 318 321 319 321 330 327 325 331 330
299 298 298 298 298 298 298 299 299 299 300 301 302 301 301 301 302 302 302 303 303 303 302 303 304 305 305 306 306 306 307 308 309 310 309 310 311 310 310 311 311 311 311 313 313 312 313 314 314 315 316 316 316 317 315 311 310 312 312 313 313 311 312 316 316 313 316 318 317 317 318 319 321 322 320 317 315 317 320 321 318 321 331 327 323 328 328
299 298 298 299 298 298 298 298 299 299 299 300 301 301 301 302 302 302 302 303 304 303 304 304 306 307 307 307 308 309 309 309 309 310 310 310 310 310 310 310 311 313 313 312 312 312 313 313 314 314 314 314 314 314 313 312 311 312 314 315 315 314 315 316 313 311 315 318 319 319 319 318 317 320 319 319 320 321 321 322 321 323 327 325 321 322 326
299 299 299 299 298 298 298 298 299 299 299 300 300 300 300 301 301 302 302 304 304 304 305 306 307 307 307 307 308 309 309 308 309 310 311 310 311 311 309 310 312 314 313 312 311 311 312 314 314 314 314 314 314 313 313 313 313 313 315 316 317 318 317 316 314 312 315 319 321 319 317 316 317 316 315 317 319 320 322 323 323 323 323 323 321 321 323
298 299 299 299 299 298 298 298 299 300 299 300 300 299 300 300 301 302 303 304 305 305 305 306 306 306 306 308 309 309 309 309 309 309 310 310 311 311 310 311 313 313 312 311 310 310 313 314 315 315 315 314 314 314 314 315 314 312 313 315 317 318 317 315 313 314 316 318 319 317 316 316 316 313 313 315 316 317 320 321 321 319 319 322 323 321 322
297 299 299 299 299 298 298 298 299 299 299 299 299 299 300 300 301 302 303 304 305 305 305 305 305 306 307 308 309 309 310 310 309 309 309 310 311 311 311 311 313 313 312 311 310 311 315 316 314 313 313 313 314 315 314 315 316 313 313 314 316 318 317 315 313 313 315 317 316 316 317 315 315 315 316 315 316 318 320 321 321 319 318 322 324 322 322
297 298 299 299 299 298 299 299 299 299 299 299 299 299 299 300 301 301 302 303 304 304 305 306 306 307 308 308 309 309 310 310 310 310 310 310 311 311 311 311 312 312 311 312 312 313 315 316 314 313 314 314 316 316 314 314 315 315 315 315 315 317 317 316 314 312 314 316 315 316 317 317 318 322 321 318 319 321 321 321 323 320 316 319 321 320 323
296 297 298 299 298 298 299 299 299 299 299 299 298 299 300 300 300 301 302 302 303 304 305 306 306 307 308 308 309 310 309 309 310 311 311 310 310 311 311 311 312 311 311 313 315 314 314 314 314 315 315 315 316 317 316 314 313 314 316 315 314 315 317 317 315 311 312 316 316 316 317 316 319 323 320 317 319 318 318 321 324 321 317 319 321 321 323
296 297 298 298 298 298 298 299 299 299 298 298 298 299 300 301 301 302 302 302 303 305 306 306 306 307 308 308 308 309 309 309 310 312 313 312 310 310 311 311 311 312 312 313 313 314 315 314 314 314 314 314 316 317 316 316 315 314 314 314 314 314 315 316 316 313 313 316 316 316 316 317 320 321 317 315 317 316 315 319 322 323 319 319 321 322 323
296 296 297 297 297 298 298 299 299 298 297 297 298 299 300 301 302 302 302 302 302 304 305 307 307 307 307 308 308 308 309 310 310 311 312 312 310 310 310 311 311 311 312 314 314 314 315 314 313 315 315 313 316 316 315 316 318 315 313 314 315 315 314 315 316 315 315 316 315 314 314 319 323 320 315 315 316 315 316 318 318 321 320 321 323 323 323
296 296 296 296 297 298 299 299 298 297 297 297 298 298 299 300 301 302 302 302 302 303 305 306 306 306 307 307 307 308 309 309 309 310 309 309 310 310 310 310 311 311 312 314 316 314 314 314 313 315 315 313 313 315 316 316 317 316 315 316 316 315 313 313 314 315 315 315 315 313 314 317 320 317 315 316 316 315 317 318 316 316 318 321 323 323 323
296 296 296 296 297 299 299 298 297 296 296 297 298 298 299 300 301 301 301 301 301 303 305 305 305 306 307 307 307 308 308 308 309 309 309 309 309 310 309 309 311 311 312 314 315 312 312 314 312 312 315 315 313 314 317 317 316 315 316 316 316 315 313 313 313 313 313 314 314 313 313 315 316 315 315 315 317 318 318 317 315 315 318 321 322 322 323
295 296 295 296 298 299 299 297 296 295 296 297 297 298 299 299 299 299 299 299 299 302 305 306 306 306 306 306 306 307 307 307 309 310 310 310 309 309 310 311 311 311 312 313 313 310 311 314 312 310 315 316 313 314 316 315 314 314 315 317 316 315 314 313 313 312 312 313 314 313 314 314 316 318 318 317 318 319 317 316 315 316 318 320 321 321 322
295 295 295 296 297 299 298 296 295 295 296 297 297 298 299 299 298 298 299 300 299 301 304 306 306 306 307 307 307 307 307 308 309 309 309 309 308 309 311 310 310 312 312 312 312 311 311 312 311 310 313 313 312 313 314 315 314 312 313 315 316 315 314 313 313 313 313 314 314 314 314 314 315 319 319 317 317 316 316 317 318 317 318 320 321 321 321
295 295 296 296 296 297 297 296 295 295 296 297 297 298 299 299 299 299 300 300 301 302 305 306 306 306 308 308 308 308 308 308 309 308 308 308 308 309 310 309 310 312 311 310 310 311 310 311 312 312 314 313 313 313 312 314 316 314 312 313 314 314 313 312 313 314 314 315 315 313 311 311 312 314 315 315 315 315 316 318 318 318 319 320 320 320 320
295 296 296 296 296 296 296 295 295 295 296 297 297 298 299 299 299 299 300 301 302 304 305 306 307 307 308 308 308 308 307 307 308 308 308 308 308 309 310 310 310 310 310 310 309 310 311 311 311 313 316 316 314 314 313 313 315 316 314 313 313 311 309 310 313 314 313 312 312 310 310 311 312 313 313 314 315 316 316 317 318 318 319 320 320 320 320
295 296 296 297 297 296 295 295 295 295 296 297 298 298 299 300 300 300 301 302 302 305 306 306 306 307 307 307 307 307 307 307 307 307 307 308 309 310 310 309 309 310 310 310 309 308 309 310 309 311 315 314 313 314 315 314 315 315 315 314 312 310 310 312 315 315 314 314 313 310 310 311 312 313 314 315 315 316 316 317 318 318 319 320 320 320 319
296 296 297 298 297 296 296 296 296 296 296 298 299 299 299 301 303 304 304 303 302 304 306 307 306 306 307 307 307 307 307 307 308 308 308 308 308 310 309 309 309 309 309 309 308 308 309 310 310 312 314 312 311 313 314 314 313 313 314 314 313 311 311 313 314 314 315 315 312 310 310 310 311 314 315 315 316 316 316 317 318 318 319 320 319 320 320
296 296 297 298 297 297 297 297 296 296 297 298 299 299 300 303 307 307 306 305 304 303 304 306 306 306 306 307 307 307 308 308 308 309 309 309 308 309 308 308 309 309 309 308 307 307 308 309 311 314 314 311 311 312 313 312 311 312 313 313 310 310 311 312 313 314 315 313 312 311 312 313 313 313 314 315 315 315 315 316 317 318 319 319 319 319 319
296 297 298 299 298 299 299 298 297 297 298 299 300 299 302 306 309 309 308 306 305 305 305 306 306 306 306 306 306 306 308 309 308 308 309 309 309 309 308 308 308 308 308 308 308 308 309 310 310 311 311 310 310 310 310 309 309 311 313 311 309 311 313 312 312 315 315 314 313 313 314 315 315 313 314 315 315 314 314 315 317 318 318 318 318 318 318
297 298 299 299 300 301 300 299 298 298 298 300 300 301 305 310 310 309 309 307 306 306 306 305 306 306 306 306 306 306 307 308 307 308 308 308 309 309 308 308 308 308 307 308 309 309 310 310 309 308 307 308 310 310 308 308 309 312 312 310 309 311 312 311 312 314 314 313 312 312 313 314 313 312 313 314 314 314 315 315 316 317 317 318 318 318 317
296 297 298 299 300 302 302 301 300 299 299 301 302 303 307 310 309 307 307 308 307 306 306 305 306 307 307 307 305 304 305 307 307 307 308 308 308 308 307 307 308 307 307 308 310 309 307 307 307 307 307 308 310 310 309 310 313 313 311 308 308 309 309 310 311 312 313 312 311 311 312 313 312 312 313 313 313 314 314 315 315 316 316 317 317 318 317
295 296 298 299 301 303 303 302 301 299 299 301 304 304 306 308 307 305 306 307 307 306 305 306 308 308 306 306 305 304 305 306 307 307 307 307 307 307 307 307 307 307 308 309 309 308 307 306 306 307 307 307 308 310 310 311 312 311 309 307 308 309 309 309 310 311 312 312 311 311 312 312 312 313 313 313 313 313 313 314 314 314 315 316 316 317 317
295 296 297 299 302 303 303 303 302 300 299 302 304 304 305 306 305 304 305 307 307 306 305 305 307 307 306 306 305 304 305 306 306 306 306 307 307 307 306 307 307 307 308 308 307 307 306 305 306 307 307 307 308 308 309 311 313 311 308 307 308 309 309 310 310 311 311 311 311 311 311 311 312 313 312 312 312 312 312 314 314 313 314 314 314 315 315
294 295 297 299 301 303 303 304 303 300 300 303 305 305 304 305 304 304 305 306 306 305 305 306 306 306 306 306 304 304 305 306 306 306 306 306 306 306 306 306 306 306 307 307 306 306 305 304 305 306 306 307 307 306 307 312 313 310 307 308 309 309 310 310 311 311 311 311 311 311 311 310 311 312 312 311 311 310 311 313 313 313 313 313 313 313 313
294 295 296 298 300 302 303 304 303 300 301 305 307 305 305 305 305 304 305 305 305 305 305 306 306 306 306 306 304 303 305 306 305 305 305 306 306 306 306 306 306 306 306 306 305 305 305 304 305 305 306 306 305 306 309 311 310 307 307 308 308 309 309 310 310 310 310 311 311 311 312 311 310 311 311 310 310 309 310 311 312 312 312 312 312 311 311
293 295 296 298 299 301 303 304 302 300 302 307 308 306 306 307 306 305 305 304 304 305 305 305 306 307 307 306 305 304 304 304 304 304 305 305 305 306 306 306 306 306 306 305 304 304 305 304 304 305 305 303 303 308 312 311 307 307 308 308 307 308 309 309 309 310 310 310 311 311 311 311 310 310 310 310 309 309 309 310 311 311 310 310 310 310 310
293 295 296 297 299 301 303 303 302 302 304 307 308 307 307 307 306 305 305 304 304 304 304 303 303 305 307 308 308 307 304 304 304 303 303 304 304 305 306 307 307 306 306 305 304 303 303 303 304 305 304 302 305 310 312 309 307 307 308 307 307 308 309 309 309 310 310 310 310 310 310 310 309 309 309 309 308 308 308 308 309 310 310 309 309 309 309
293 295 296 297 299 301 303 302 303 305 306 307 307 306 306 306 305 305 305 305 304 304 303 302 301 303 305 307 307 306 304 304 304 303 302 303 303 303 305 307 306 304 304 305 304 303 303 303 304 304 304 304 307 309 308 307 308 308 308 308 308 309 310 310 309 309 309 309 309 309 309 309 309 309 308 308 308 308 308 308 308 309 309 309 308 308 308
294 296 297 298 299 301 302 302 303 305 307 307 307 306 306 305 305 305 305 304 304 304 304 302 302 303 303 303 304 304 305 305 304 303 302 302 301 301 303 305 305 304 304 305 304 303 303 302 303 306 306 305 306 307 307 308 309 309 308 309 309 309 310 310 309 309 309 308 308 308 308 308 308 308 308 307 307 307 308 308 308 308 309 309 308 307 307
294 296 297 299 301 302 303 303 305 306 307 307 306 306 305 304 304 304 304 303 304 305 304 303 303 302 302 302 304 306 305 304 303 303 303 302 301 301 302 302 302 303 304 304 303 302 302 301 300 304 307 305 303 305 308 309 309 309 309 309 309 310 310 310 309 309 308 308 307 308 308 308 307 307 307 307 307 307 307 308 308 308 309 309 308 307 307
295 297 298 300 301 302 303 304 305 306 306 306 305 305 304 304 304 304 304 303 304 305 304 304 304 303 303 304 306 305 304 304 304 304 303 302 302 302 302 301 301 302 304 304 302 301 303 303 300 302 305 307 306 306 308 308 308 309 309 309 309 310 310 309 309 309 308 308 308 308 307 307 308 308 307 307 307 307 307 307 307 307 308 308 308 307 307
296 297 299 301 302 302 303 304 304 304 304 304 304 304 304 303 303 303 303 304 305 305 305 305 305 304 304 305 306 305 304 304 304 304 303 303 301 301 301 300 300 301 303 303 301 301 303 305 303 302 304 308 307 307 308 308 308 308 308 307 308 310 309 309 309 309 308 308 308 307 307 307 307 308 308 307 307 307 307 307 307 307 307 307 307 307 307
296 296 298 300 301 302 303 303 303 304 304 304 304 303 303 303 302 301 301 303 304 304 303 304 305 304 303 304 304 304 303 303 303 302 303 302 301 301 302 301 299 300 303 301 299 299 302 305 305 305 305 306 305 306 308 308 306 306 306 306 307 308 309 309 309 309 308 307 307 307 307 306 306 307 307 307 307 307 307 307 307 306 306 307 307 307 307
296 297 298 300 301 302 303 303 303 304 304 304 303 303 302 302 301 300 301 301 301 302 302 303 304 304 303 303 303 303 302 303 302 302 303 302 300 300 302 302 301 302 302 300 298 300 303 306 308 307 305 304 304 306 308 308 306 306 306 305 306 308 309 309 308 308 308 307 308 308 307 306 306 306 306 306 307 307 306 307 307 306 306 306 306 306 307
296 298 300 301 301 302 303 304 304 304 304 304 302 302 302 303 302 301 301 300 300 301 302 303 303 303 304 303 303 302 302 302 302 301 302 301 300 300 303 303 302 301 299 298 299 301 303 306 309 307 304 303 304 306 307 307 306 306 305 305 306 308 308 307 307 306 306 307 308 308 307 306 306 306 305 306 306 306 306 306 306 306 306 305 305 306 306
297 299 301 302 302 302 302 302 303 304 305 304 302 301 303 304 302 301 301 301 300 301 302 302 301 303 304 303 303 303 302 301 301 301 301 299 299 302 304 303 301 299 298 299 302 301 300 302 305 304 302 302 303 305 306 307 306 305 305 305 307 308 307 306 305 305 306 307 308 307 307 307 306 305 305 305 305 305 305 305 305 305 305 305 305 305 305
299 301 302 303 302 301 301 301 303 304 304 304 303 303 303 303 301 301 301 301 300 301 302 301 300 301 302 303 303 302 301 301 302 301 300 299 301 302 301 300 299 299 299 301 303 302 300 302 304 303 300 301 302 304 306 307 306 305 305 306 307 308 306 305 305 305 306 307 308 307 307 307 306 306 305 305 305 305 305 305 305 305 305 305 305 305 305
300 300 301 302 302 301 300 301 303 303 302 301 301 301 301 301 300 300 300 300 299 300 301 301 300 301 302 302 303 302 300 301 301 300 298 300 303 301 298 297 299 301 301 302 303 303 303 304 305 302 300 301 303 305 306 306 306 305 305 306 307 307 305 305 305 305 305 306 307 307 307 307 307 306 306 305 305 305 305 304 304 304 304 304 304 305 304
300 299 299 301 302 301 300 300 301 300 299 299 299 298 299 299 299 299 299 299 299 300 301 301 301 302 301 301 302 301 300 300 301 300 298 301 303 301 298 299 302 301 300 301 304 305 305 304 303 301 301 302 304 305 306 306 306 305 305 305 306 306 305 305 305 304 304 305 306 306 307 307 307 306 306 305 305 305 304 304 304 304 304 303 304 304 304
299 299 300 301 300 300 299 299 299 298 298 299 299 298 299 299 299 299 299 299 299 301 302 301 302 302 301 301 302 301 299 299 301 300 298 300 302 302 301 302 303 301 300 301 303 306 306 303 301 302 303 304 304 305 306 306 306 306 305 305 306 306 306 306 305 304 304 305 305 306 306 306 306 306 306 305 305 304 304 304 304 304 304 303 303 303 303
297 298 299 299 298 298 298 298 299 298 298 298 298 298 298 299 298 298 299 300 300 301 301 301 301 303 302 300 301 302 301 301 302 301 300 301 302 302 301 302 303 302 301 302 304 305 304 302 302 303 304 304 304 305 306 306 306 306 305 305 306 306 306 305 304 304 304 305 306 306 306 306 306 306 306 305 305 305 304 304 304 304 303 303 303 302 302
296 297 298 298 298 298 297 298 299 298 298 298 298 297 297 298 298 298 299 299 300 301 301 301 301 301 300 300 302 304 302 301 301 301 302 303 302 300 300 302 304 305 304 304 304 303 302 302 303 304 304 304 304 305 305 305 306 306 305 305 306 306 305 304 304 305 305 305 306 306 306 305 306 306 306 306 305 305 304 304 304 303 303 303 303 302 302
295 296 296 296 297 297 297 297 298 298 297 297 297 296 296 297 297 297 298 299 299 301 301 300 299 299 301 302 303 302 300 299 300 301 301 301 300 300 302 304 306 306 305 304 303 303 304 305 305 304 303 304 304 304 304 305 306 305 305 305 306 306 305 303 303 305 306 305 305 306 305 305 305 306 305 305 305 304 304 304 304 303 303 303 303 303 302
296 295 295 295 295 296 296 296 296 296 296 295 295 295 296 296 295 296 297 298 299 300 299 298 298 301 302 301 299 298 299 300 301 302 301 300 300 302 305 306 305 304 304 302 302 303 305 305 304 303 303 304 304 304 304 305 305 305 305 305 306 306 306 304 303 304 305 305 305 305 305 305 305 305 305 305 304 304 304 304 303 302 302 302 302 303 302
Wind_Speed
22 24 24 24 23 20 18 18 19 21 23 21 13 7 5 4 3 4 4 4 7 5 1 1 1 1 1 2 4 4 3 3 3 3 3 4 3 3 3 4 4 4 4 3 1 3 3 2 2 4 5 4 4 14 23 21 15 8 3 4 4 3 2 3 4 3 2 1 2 4 10 9 7 7 8 8 6 3 3 3 5 5 4 3 2 2 2
21 23 25 25 23 21 19 17 17 20 22 18 10 7 5 3 2 2 3 4 6 3 1 2 3 3 3 3 4 5 5 5 5 4 3 3 2 2 3 3 3 3 3 3 3 1 1 1 1 2 3 2 3 16 26 22 13 8 5 6 6 3 1 3 6 6 5 4 3 4 8 8 7 5 6 8 7 5 3 2 4 5 4 4 4 4 1
19 21 23 24 22 21 20 17 17 20 20 14 8 5 4 2 2 3 1 2 4 1 1 2 3 4 6 5 5 5 5 6 8 7 6 6 5 3 3 3 3 4 3 3 2 1 1 1 1 1 2 1 3 12 23 19 12 11 12 11 8 3 1 2 5 7 7 7 5 4 5 4 2 3 6 9 10 10 5 2 4 6 3 3 5 4 1
19 19 21 23 22 21 19 17 17 20 19 14 9 7 5 2 1 3 2 2 3 0 1 2 3 4 6 5 5 4 3 3 7 9 7 8 8 6 5 4 4 4 4 1 1 2 3 2 2 1 3 2 2 8 17 15 12 14 15 14 8 2 1 2 2 3 4 3 2 1 5 7 6 6 9 10 11 11 7 3 4 5 4 4 5 2 2
21 19 20 22 22 21 20 17 16 17 18 15 10 7 6 3 1 2 3 2 2 2 3 2 2 3 3 2 3 4 4 5 4 7 6 6 8 6 4 4 3 3 3 1 3 2 3 3 4 2 2 2 3 5 11 10 12 14 14 15 8 1 2 3 2 2 1 1 1 1 4 10 11 10 11 12 10 10 9 6 4 5 5 5 4 3 5
23 22 20 20 21 21 21 17 14 14 16 15 12 8 6 4 1 1 3 3 2 2 3 4 5 6 4 2 2 4 5 6 3 4 4 4 6 4 1 3 4 6 5 2 3 2 2 2 3 2 2 3 3 3 3 3 8 10 10 10 6 1 3 4 2 3 1 1 2 3 3 5 7 9 12 13 11 11 11 8 5 7 6 5 5 9 8
23 24 22 20 20 20 21 18 13 12 13 13 14 12 7 4 2 1 2 3 4 6 8 9 8 7 5 3 3 3 5 6 4 2 3 2 4 5 1 2 4 5 3 2 3 2 2 2 2 1 2 2 2 3 2 1 2 4 6 5 1 2 4 3 3 4 4 3 1 3 4 4 3 5 9 11 13 13 11 7 5 6 4 2 5 12 8
22 24 24 23 21 19 20 20 15 12 12 10 13 15 10 6 4 5 5 4 6 8 8 7 6 5 4 3 3 3 3 4 6 3 2 3 2 2 1 3 4 5 5 5 5 2 1 2 2 3 3 2 2 1 2 3 2 3 5 4 0 2 3 3 3 3 3 4 4 4 4 5 4 2 2 6 10 9 6 5 4 3 1 1 4 8 5
22 23 24 24 23 19 18 20 17 14 13 11 12 15 13 10 7 8 7 4 4 5 5 4 4 3 2 2 2 2 2 5 7 3 3 1 3 1 2 4 2 5 7 6 6 2 1 1 1 3 2 2 1 1 2 5 6 4 3 3 1 2 2 2 3 4 1 3 5 5 4 6 5 2 3 6 7 5 3 3 4 5 5 6 5 3 3
20 22 22 22 22 20 17 17 17 15 14 14 13 14 16 15 13 12 8 3 2 3 4 4 3 4 5 6 7 6 6 8 8 3 2 0 2 3 3 3 1 3 4 4 4 4 5 4 3 2 2 2 3 2 3 5 6 5 4 2 1 3 3 2 3 5 2 2 3 2 4 6 4 1 2 4 2 2 3 1 3 6 6 8 5 1 2
17 20 21 21 21 20 16 15 16 16 15 15 14 14 16 16 16 14 7 2 2 3 4 4 4 4 7 11 11 9 9 10 8 3 2 3 6 10 6 1 2 3 2 7 9 8 7 2 2 4 7 8 7 5 6 5 2 3 5 2 1 3 5 3 2 4 3 1 3 0 4 5 3 1 1 2 1 1 3 1 3 5 4 2 1 1 6
15 18 19 20 20 19 16 15 15 15 14 13 12 12 14 15 15 12 6 3 4 4 4 6 6 6 9 12 12 10 10 11 7 4 3 4 8 11 8 3 2 2 4 9 9 5 2 3 5 6 7 6 4 4 7 7 3 2 2 3 4 5 5 2 0 1 3 1 2 1 4 2 1 0 2 3 2 2 2 2 3 5 3 1 1 3 10
12 15 17 20 20 17 16 15 14 14 13 12 11 10 13 14 13 11 8 4 3 4 6 8 9 10 12 12 11 10 11 11 7 3 2 3 6 8 8 5 3 5 8 7 4 3 2 3 3 3 3 2 2 4 8 8 5 3 2 1 4 6 5 2 1 1 2 3 2 2 1 1 2 3 2 2 3 3 2 2 5 7 7 4 3 6 11
10 13 16 18 19 18 16 15 14 14 12 12 11 11 12 11 10 11 10 4 3 7 8 6 7 11 13 12 10 9 10 11 8 4 2 3 4 5 8 9 8 10 11 7 3 1 1 2 2 3 2 0 1 2 4 5 5 4 2 1 2 6 5 3 2 1 1 3 3 0 3 2 2 2 3 5 4 4 3 2 3 7 8 7 6 8 11
8 13 15 17 18 18 16 15 14 13 13 13 12 11 11 10 9 10 10 6 4 6 6 4 6 10 10 10 9 7 7 8 7 5 5 4 4 5 8 11 10 10 9 5 3 2 1 2 2 3 2 2 3 2 1 2 3 4 2 1 2 2 3 4 3 1 1 3 3 1 3 3 2 1 3 5 3 2 1 1 0 5 9 10 9 11 14
10 13 15 15 16 16 16 15 13 13 14 14 13 11 10 9 9 10 11 8 4 4 5 8 10 9 8 7 7 5 4 5 6 5 3 4 6 8 10 10 8 8 7 4 2 2 2 2 2 2 1 0 1 2 1 1 1 3 3 4 4 2 1 3 3 2 2 3 4 3 3 3 3 1 2 4 5 3 2 0 2 4 11 15 13 14 17
12 14 15 14 14 15 15 14 13 14 15 15 14 12 10 9 10 10 10 8 5 6 7 8 9 8 6 4 4 4 4 5 5 3 3 4 6 9 11 10 7 7 7 3 1 2 3 2 1 2 2 1 0 2 2 1 2 3 4 5 4 2 1 2 4 4 4 4 3 2 2 3 3 2 2 6 6 3 2 4 2 2 11 19 18 18 22
13 14 15 14 14 12 12 12 13 14 15 16 15 12 10 11 10 8 10 10 4 6 8 9 10 9 5 4 5 5 4 5 4 3 4 4 3 7 11 9 5 6 7 3 1 2 3 2 1 2 2 1 2 1 2 2 2 2 3 4 3 2 1 0 3 4 5 5 3 1 2 3 2 2 6 8 5 3 4 4 1 1 10 17 16 19 25
13 14 14 13 12 11 11 13 15 16 17 17 15 12 10 11 9 8 11 10 4 7 13 12 10 9 7 6 7 7 6 6 4 3 3 1 4 11 10 4 3 4 3 2 1 1 2 2 0 0 1 1 1 0 1 2 1 1 1 2 3 2 1 1 2 4 3 3 3 1 2 3 4 5 6 6 4 3 3 1 2 2 12 16 14 17 22
12 12 12 11 10 9 11 13 15 17 18 17 17 14 10 11 11 10 13 11 8 13 15 11 8 11 12 11 10 9 8 5 2 1 0 1 9 14 5 1 4 5 1 1 2 1 1 1 1 1 1 2 1 1 1 1 1 1 1 1 1 1 2 2 2 2 2 1 3 2 1 4 12 12 5 3 3 0 2 2 3 1 11 16 16 18 22
11 10 10 10 9 9 11 13 15 17 17 17 18 15 10 11 13 13 14 12 10 12 12 13 15 15 13 12 11 10 9 7 3 3 4 6 9 8 1 0 4 2 1 2 1 1 1 1 1 1 1 1 1 1 1 1 1 1 1 1 1 1 1 2 2 2 2 3 4 2 2 3 12 10 2 2 3 1 4 2 2 1 9 14 15 17 22
9 8 9 9 8 9 12 14 16 17 17 17 18 16 12 11 12 13 14 14 13 14 14 15 14 9 5 7 9 8 9 9 6 7 9 8 7 4 3 4 4 2 1 2 1 1 1 1 1 1 1 1 1 1 1 0 1 1 1 0 1 0 1 0 1 1 1 1 1 1 4 3 8 4 4 3 3 3 3 3 3 1 6 12 14 17 22
9 8 9 9 9 10 12 13 15 16 16 17 17 17 16 14 13 15 15 15 17 18 15 10 6 4 5 6 7 8 10 10 8 7 9 8 5 4 5 4 2 3 3 4 4 1 0 1 1 1 1 1 1 2 1 1 0 1 1 0 1 1 1 1 0 1 1 1 2 3 4 3 5 6 5 5 3 5 5 4 3 3 5 11 16 20 24
8 8 9 9 9 11 12 12 14 15 16 16 16 17 17 16 16 17 16 13 14 14 11 6 5 5 7 8 7 8 10 10 8 6 6 8 7 3 1 1 3 4 4 8 9 3 1 1 1 1 1 0 1 1 1 0 1 2 2 1 1 0 1 0 1 1 2 1 1 2 4 3 3 7 7 6 5 4 5 6 5 4 6 10 15 20 25
8 8 9 9 10 11 12 12 14 15 15 15 15 16 17 16 15 15 14 11 9 7 5 5 4 5 8 8 7 8 10 9 8 6 4 7 9 5 3 3 5 5 8 13 10 2 2 1 1 1 1 1 1 0 0 1 0 1 2 1 0 0 0 1 1 1 1 1 2 4 5 3 3 5 7 7 6 5 4 6 6 6 8 11 14 18 24
9 8 9 11 11 11 12 13 15 15 15 14 14 15 17 15 13 11 11 9 6 3 2 4 4 6 8 7 7 9 9 9 8 8 4 3 4 6 7 9 10 10 11 11 6 2 2 1 1 1 1 1 0 1 0 0 1 1 1 0 0 0 1 0 2 1 1 2 2 3 4 3 4 6 7 7 6 5 4 6 6 7 9 12 15 18 23
10 9 10 11 11 11 12 13 15 15 14 13 14 15 14 10 9 9 9 7 5 2 0 5 10 11 8 7 10 11 9 8 8 6 3 4 4 5 7 8 10 10 8 4 0 2 2 2 2 1 1 2 2 1 1 1 1 1 1 1 1 1 1 2 2 1 0 1 2 3 1 2 3 6 7 7 5 4 4 5 6 7 10 13 17 20 23
10 10 10 10 10 11 12 14 15 15 14 13 13 13 9 5 7 9 8 7 5 3 4 11 15 11 6 7 11 12 9 8 8 6 7 8 7 5 5 5 6 7 4 1 3 2 1 2 2 1 1 1 2 2 1 1 1 1 1 1 1 1 1 2 0 1 0 3 2 5 1 3 1 6 7 6 5 3 2 3 4 7 10 14 18 21 24
11 10 10 11 11 11 12 13 15 15 14 13 12 9 5 3 5 9 9 7 6 7 10 12 11 6 4 5 10 11 9 7 7 7 9 9 7 5 5 3 2 2 2 4 5 4 3 2 3 2 2 0 1 1 1 1 1 1 0 1 3 3 4 4 2 0 3 5 2 7 4 2 3 7 6 5 4 2 1 2 3 6 9 14 18 21 24
10 10 10 11 11 12 12 13 15 15 14 12 11 7 2 2 5 9 10 8 7 9 9 7 4 5 6 7 10 12 9 7 6 6 8 9 7 6 7 8 7 5 4 5 5 4 3 3 3 2 3 2 1 2 2 1 1 1 0 3 5 5 6 8 6 4 3 3 2 6 3 2 6 7 6 5 4 2 0 2 3 5 10 14 18 21 23
10 10 10 11 11 12 12 13 14 14 13 12 10 6 2 2 5 10 11 9 8 9 7 5 6 7 7 5 9 13 10 7 6 5 6 7 7 7 7 8 8 7 6 6 7 5 3 2 2 1 3 4 2 2 2 1 2 1 2 5 6 3 3 6 7 5 2 1 4 5 5 7 8 6 5 5 5 4 1 2 3 5 9 13 18 21 23
10 10 10 11 12 12 12 12 13 13 13 11 7 4 2 3 6 9 10 8 9 9 6 4 4 4 3 4 9 13 10 6 6 6 6 5 4 5 7 8 9 9 8 7 6 4 2 2 1 2 3 4 3 2 1 1 2 1 4 6 3 2 6 7 7 5 5 7 7 5 5 7 6 4 5 5 4 4 1 2 4 6 8 12 16 19 21
10 10 10 10 12 12 12 12 12 12 12 9 4 3 3 5 6 9 10 9 8 7 5 3 2 1 3 5 8 11 9 5 5 6 6 6 5 3 4 6 7 9 9 6 3 3 2 2 2 2 3 4 3 1 1 1 1 1 4 3 1 6 9 10 10 9 9 8 4 2 4 7 6 5 6 5 4 3 2 2 6 8 8 11 14 17 20
10 10 10 10 11 12 12 11 11 11 9 7 4 4 5 6 9 12 12 10 7 5 4 3 1 1 4 4 3 8 10 7 4 4 5 6 7 5 3 3 4 6 7 6 4 3 3 3 2 1 2 4 3 1 1 0 0 0 1 3 6 10 13 13 11 9 7 4 2 2 6 8 7 6 6 5 3 1 1 3 7 9 10 11 14 16 18
10 10 9 9 9 10 10 10 10 9 7 5 4 6 7 9 13 14 12 9 5 3 2 2 0 1 3 2 1 6 11 8 4 4 4 4 6 6 4 3 3 3 4 4 3 2 2 3 2 1 1 2 1 0 1 2 4 3 4 7 11 12 11 10 9 8 7 6 6 7 8 7 6 6 6 5 3 3 5 7 7 8 10 13 16 17 19
10 9 8 7 8 8 8 8 8 6 5 4 5 6 10 13 14 12 8 6 4 3 2 2 1 1 1 0 2 6 9 7 4 5 4 3 4 6 5 3 2 2 3 3 2 1 2 3 2 1 0 1 1 1 2 6 8 7 8 10 11 8 7 8 10 11 10 8 7 7 7 6 6 7 6 5 5 5 7 9 9 9 11 14 17 19 22
9 9 7 5 6 6 6 6 6 5 4 5 6 8 11 12 11 7 4 3 3 5 4 2 1 2 2 1 3 6 7 6 5 5 4 3 3 5 5 4 1 1 2 2 2 2 3 3 2 0 0 1 1 2 7 9 9 8 10 11 8 5 7 11 12 11 11 9 7 7 6 7 7 7 6 6 7 6 7 8 9 10 11 13 17 21 23
7 6 4 5 6 6 5 4 5 5 5 5 7 8 8 6 5 4 1 1 2 3 4 3 2 3 3 2 4 6 5 5 4 2 3 4 3 2 3 3 1 1 1 1 1 4 3 2 2 1 1 2 1 6 11 11 9 9 10 8 6 6 9 11 11 10 10 9 7 6 7 8 8 8 7 8 7 6 6 7 8 9 11 13 17 21 23
7 4 4 6 7 6 5 4 4 4 4 5 6 4 3 2 3 2 1 1 1 2 3 3 4 4 4 3 4 5 4 3 3 1 2 3 3 1 1 2 1 2 1 1 2 4 2 1 2 1 1 1 1 7 14 13 11 11 10 8 7 8 8 9 9 8 8 6 4 5 5 5 7 9 9 9 8 7 6 6 6 8 11 14 17 20 22
5 2 3 5 6 7 7 6 5 3 3 4 3 2 2 2 2 1 0 0 1 2 3 3 4 4 4 4 3 3 4 3 3 1 1 2 2 1 1 1 1 1 1 0 2 4 2 0 2 1 0 1 1 10 16 15 12 12 11 8 9 10 9 9 8 5 5 3 2 5 6 4 4 7 7 7 8 8 7 7 6 7 9 12 15 18 19
5 3 1 3 5 6 8 8 6 4 2 2 2 1 1 1 2 2 1 0 1 1 1 2 3 3 3 4 5 3 3 3 3 2 1 1 2 2 1 1 1 1 1 1 2 2 1 1 1 1 1 1 3 12 18 16 13 12 11 9 9 10 11 11 10 7 4 3 3 5 7 7 5 6 7 6 6 7 8 7 7 7 8 11 13 15 17
8 7 5 4 4 4 5 7 6 4 2 1 1 1 1 1 1 1 1 1 1 1 1 2 3 3 4 4 5 4 3 2 3 2 1 1 2 1 1 1 1 1 1 1 2 2 1 1 1 2 3 2 5 12 18 18 14 12 10 8 8 9 10 11 10 7 6 5 4 6 9 9 7 7 8 7 7 8 8 8 8 9 9 10 12 14 15
7 6 4 3 2 2 3 4 5 3 0 1 1 0 1 1 1 1 0 0 1 2 3 4 5 4 4 3 3 3 3 2 2 1 1 1 1 1 2 1 1 1 1 1 1 1 1 0 1 2 2 1 4 11 17 18 16 12 10 8 8 9 10 9 6 5 6 6 5 7 10 10 9 8 9 9 9 11 10 9 9 9 9 11 12 13 15
5 4 2 1 1 2 2 2 4 3 1 0 1 1 1 0 0 0 1 1 2 3 5 7 6 4 3 4 3 2 2 1 1 1 1 1 1 1 1 1 1 1 1 1 1 1 1 2 4 6 7 6 5 9 16 18 17 14 12 10 10 11 11 9 6 4 6 8 7 8 11 11 10 9 9 9 10 11 12 12 11 10 10 10 11 13 15
3 2 1 1 0 2 2 1 1 2 1 1 1 2 1 1 1 0 1 2 4 6 8 9 7 5 4 5 3 1 0 1 1 1 1 1 1 1 1 0 1 1 0 1 1 1 1 1 3 6 8 8 5 11 16 18 18 16 13 12 12 12 11 9 6 4 5 7 8 8 10 11 11 9 9 9 8 8 10 12 13 12 11 11 11 12 14
2 2 2 1 0 1 1 0 0 0 0 0 1 0 0 1 2 1 3 5 7 9 11 11 8 5 5 4 2 1 1 1 1 1 1 1 1 0 0 0 0 1 2 1 1 1 2 2 2 5 9 6 4 13 17 18 18 16 13 12 13 12 11 10 7 4 3 6 7 6 7 9 11 10 9 9 8 7 8 10 11 12 12 12 11 12 13
2 2 2 1 0 1 0 1 1 2 2 3 4 4 2 2 3 5 7 9 10 10 10 8 5 3 3 3 1 1 1 1 1 1 1 0 1 0 1 0 0 1 1 0 2 2 2 3 5 10 11 4 6 14 17 18 19 17 13 12 13 13 12 10 7 4 3 5 7 6 6 7 9 10 9 10 10 9 8 9 10 10 10 11 12 12 13
2 2 1 1 1 0 1 1 3 4 5 6 8 9 7 5 4 9 12 12 12 10 8 5 2 1 1 1 0 0 1 2 1 0 1 1 1 1 2 2 1 1 1 2 2 2 2 5 10 13 9 2 8 13 17 18 18 16 14 12 12 13 12 9 5 4 5 7 9 8 6 6 8 9 9 10 11 11 10 10 10 10 9 9 10 12 13
2 1 1 1 1 1 2 1 2 3 6 8 9 11 11 10 10 13 14 14 13 10 5 2 2 0 1 1 1 0 1 1 1 1 1 1 1 0 0 1 1 1 1 2 3 3 6 10 12 10 6 3 7 12 15 17 17 16 14 11 11 12 11 8 5 6 7 8 9 8 7 7 8 8 8 9 11 12 12 11 11 11 10 10 10 11 13
1 1 2 1 1 1 3 2 1 1 5 7 9 10 12 12 13 14 14 15 14 8 2 2 3 2 0 1 1 1 0 0 1 1 1 0 1 1 0 1 2 1 1 3 4 7 10 10 8 6 4 3 7 11 13 15 16 16 13 10 11 12 11 8 6 7 9 8 8 8 9 10 10 9 7 7 10 11 12 12 11 11 10 10 10 11 12
1 2 2 2 2 2 2 2 2 1 2 4 7 9 9 9 11 13 14 15 14 7 2 1 3 2 0 1 1 1 1 1 1 1 1 1 2 2 0 2 3 3 4 6 8 10 9 6 3 4 4 3 6 10 12 13 15 14 12 11 12 13 12 9 7 7 8 8 8 8 9 11 10 8 7 9 11 12 11 11 11 10 9 9 10 11 11
2 2 2 2 3 4 4 4 3 3 2 2 5 6 5 6 9 11 11 11 10 6 2 2 2 1 1 1 1 1 1 1 1 0 1 1 2 2 3 4 3 4 7 11 13 11 6 2 3 4 4 4 5 9 12 13 14 13 12 12 12 12 13 11 9 7 7 8 8 8 8 9 9 9 10 11 13 12 11 11 12 12 10 9 10 11 11
Wind_Direction
360 354 354 358 356 351 352 355 355 355 356 0 15 53 74 67 95 108 81 12 341 331 298 345 344 278 289 295 259 254 275 269 253 261 251 239 228 230 248 236 226 227 232 264 228 148 135 145 135 129 160 186 189 172 168 163 159 162 160 170 177 164 147 155 139 117 132 82 24 187 180 168 178 198 185 176 181 177 179 161 150 170 182 170 204 218 148
1 356 357 2 1 357 357 359 359 359 359 3 24 61 66 54 52 78 83 18 350 341 267 334 339 327 318 295 259 238 232 234 239 244 232 225 234 259 251 229 227 261 252 246 252 177 157 184 119 112 154 182 161 163 165 164 164 174 180 174 177 180 184 168 152 139 149 157 139 171 191 190 191 191 175 174 162 126 102 108 160 190 194 178 209 211 138
359 359 360 2 1 358 359 2 2 2 4 6 14 28 24 13 16 29 55 347 343 23 134 332 320 329 325 302 285 265 238 227 232 241 244 234 232 250 262 262 276 290 284 255 261 35 75 151 161 89 135 107 92 157 167 166 165 184 187 172 163 166 167 172 168 160 167 177 174 174 179 181 192 168 168 176 168 160 160 143 176 200 181 177 220 211 114
358 1 4 3 1 359 1 4 7 9 11 10 7 13 14 3 12 8 339 318 339 220 229 308 308 327 325 307 301 286 268 263 237 233 244 236 225 238 266 279 279 252 238 224 99 70 44 83 151 124 138 118 52 162 173 172 171 180 178 162 148 122 160 162 157 158 167 175 174 138 149 167 187 178 172 182 181 176 173 162 190 188 149 180 226 193 136
358 0 5 3 1 2 3 7 16 16 14 14 14 19 26 30 43 6 345 323 321 281 257 257 248 282 297 312 319 280 269 303 255 214 225 219 208 223 246 244 267 250 217 141 93 86 42 92 148 147 127 85 49 152 173 181 182 177 167 158 148 89 189 171 100 92 129 161 155 177 182 186 188 175 173 184 183 176 181 192 180 143 152 204 202 161 182
356 358 2 3 1 2 3 9 19 17 15 20 23 26 32 27 27 360 343 317 299 292 281 279 273 268 256 236 271 261 265 294 277 210 241 236 203 209 231 227 262 269 242 192 104 116 77 88 149 143 114 111 88 116 152 198 192 178 165 162 153 129 189 184 123 113 102 322 209 199 201 192 185 179 178 177 175 180 188 194 172 160 193 233 170 174 201
356 354 357 2 4 4 4 7 14 15 14 18 24 32 33 7 341 318 323 284 259 274 285 293 294 280 263 237 238 268 281 295 312 269 271 274 199 197 230 308 291 295 265 158 104 118 124 119 166 158 114 121 113 115 125 208 205 167 160 163 159 191 181 165 149 126 79 36 43 170 171 162 166 189 186 175 175 185 188 182 167 169 208 284 170 182 203
358 353 355 359 2 6 7 4 6 13 15 16 26 30 22 360 339 317 308 281 265 276 282 290 294 280 264 243 236 255 266 307 341 325 274 357 49 166 294 326 338 3 22 83 92 74 86 106 151 168 146 132 138 143 150 156 138 138 162 167 195 217 183 143 158 153 76 50 45 68 144 154 140 158 191 171 169 176 176 155 149 153 146 52 165 182 205
359 355 355 355 357 4 8 4 6 15 21 24 30 25 12 4 358 334 319 297 282 297 295 280 284 293 286 277 283 281 291 337 345 317 245 355 40 72 309 291 305 14 24 56 73 54 355 54 153 199 182 136 150 222 184 160 154 148 164 167 160 195 166 112 175 192 156 40 37 45 92 122 125 142 178 169 162 159 150 143 172 181 146 126 142 181 211
359 359 358 352 351 358 4 6 10 18 25 27 27 15 3 1 2 352 335 295 285 325 317 297 312 336 330 328 332 334 340 348 352 337 269 306 28 6 319 255 233 38 22 20 9 319 290 291 293 245 198 94 81 139 156 151 155 156 158 151 134 161 145 126 188 189 151 27 5 41 112 132 143 165 178 172 161 145 142 121 216 197 154 138 158 202 148
359 359 357 351 349 352 359 6 11 17 23 24 18 6 358 355 350 345 333 285 303 338 333 334 353 345 323 324 335 340 341 348 358 7 345 322 342 355 353 280 115 86 344 329 325 305 288 287 70 104 119 103 82 97 123 119 108 146 157 153 104 144 147 141 202 188 150 12 329 132 149 159 160 12 227 212 283 176 169 196 226 205 173 131 88 48 142
358 359 356 352 348 350 356 4 10 15 19 17 10 1 354 349 346 341 325 301 319 336 344 334 324 319 318 325 340 348 339 337 336 313 285 292 327 353 7 24 80 89 335 334 327 296 236 127 97 93 100 93 57 56 91 97 63 31 140 154 141 142 146 133 139 172 138 57 350 127 140 139 131 239 241 227 236 255 266 287 245 214 198 115 64 184 175
356 1 357 352 349 350 356 1 6 11 13 10 6 357 346 345 349 347 334 311 304 325 331 317 311 327 341 345 349 344 335 340 344 320 261 269 315 350 13 19 360 336 338 340 316 261 177 129 103 89 72 40 355 20 53 69 58 41 64 123 144 144 141 115 71 88 136 129 129 144 109 31 150 164 170 161 178 211 229 239 218 207 205 192 170 183 182
354 2 358 351 349 351 354 358 1 2 5 6 2 354 346 343 347 346 340 329 295 314 321 314 321 339 347 347 345 339 340 353 5 6 342 305 296 327 359 3 349 337 342 350 339 324 119 116 98 101 91 94 122 59 45 47 40 49 64 24 147 145 141 128 89 29 140 142 140 152 325 318 166 157 167 169 178 194 193 213 201 190 196 191 166 166 174
351 359 357 349 349 351 352 354 358 358 1 4 1 356 354 354 351 345 340 328 299 308 324 334 332 336 336 335 341 350 355 359 360 345 332 334 327 338 355 358 351 347 356 12 21 19 75 82 91 117 128 155 141 102 40 25 26 29 44 92 132 138 163 167 149 75 133 123 125 187 282 271 233 180 166 177 189 184 161 337 257 176 185 187 172 165 168
350 353 351 346 348 352 352 352 357 358 359 4 6 2 3 6 359 349 342 334 308 299 325 327 323 322 319 319 333 352 357 352 351 340 333 349 348 347 357 2 359 2 18 46 57 27 57 65 81 123 115 55 140 122 85 21 28 35 60 102 112 63 10 161 135 123 155 135 136 174 216 254 262 291 150 194 201 163 106 252 229 174 174 177 171 165 166
349 344 340 340 348 354 353 353 355 356 359 6 9 4 359 356 351 346 347 344 311 283 306 324 329 328 321 314 333 357 356 344 346 343 326 329 333 337 348 360 11 21 26 38 44 35 59 69 61 103 96 351 296 142 129 92 80 89 93 104 111 80 44 143 137 140 154 141 136 186 222 237 268 294 208 199 189 160 162 197 206 152 170 175 173 169 168
346 341 337 337 345 353 355 354 352 355 2 8 9 3 351 344 343 337 341 346 317 281 313 326 317 313 313 313 317 326 334 331 330 328 310 293 307 329 334 342 3 22 22 29 69 44 55 64 41 73 89 342 293 192 138 121 108 120 121 111 107 94 53 103 143 146 155 155 154 219 242 214 234 227 194 183 173 182 201 189 137 134 179 181 179 173 170
341 341 339 337 343 351 354 351 351 355 2 5 7 6 355 349 351 336 333 342 304 290 321 327 308 300 307 303 297 303 319 316 302 320 323 289 340 334 325 324 1 360 7 51 79 48 54 78 59 359 80 81 331 34 112 112 86 75 115 117 120 128 109 92 136 140 141 157 152 140 269 213 162 155 174 181 178 190 199 159 20 175 182 183 182 179 176
336 339 338 337 341 348 349 348 349 352 356 358 1 5 360 353 354 340 332 334 305 300 323 340 328 320 319 308 298 300 309 301 249 272 274 268 330 335 334 118 12 352 347 52 57 68 56 76 76 317 64 67 3 338 92 55 23 356 349 70 104 170 156 144 155 146 104 109 148 149 266 184 151 141 149 207 205 241 349 336 352 148 176 179 180 181 181
335 335 336 337 340 342 343 344 344 347 352 352 353 359 2 354 348 336 328 327 305 294 317 332 326 321 317 311 306 295 287 285 278 282 278 282 312 331 10 119 329 334 16 8 51 113 47 79 106 43 61 60 334 311 102 78 64 353 346 66 122 256 170 139 189 192 161 156 165 157 336 185 161 148 114 227 198 360 359 2 19 78 173 178 179 180 181
337 335 334 333 337 339 340 342 342 344 348 348 346 351 358 355 346 334 326 320 301 291 306 320 323 324 322 321 323 311 298 302 300 274 271 282 300 297 260 273 296 294 342 360 42 94 58 113 142 103 107 123 25 22 36 55 132 110 352 152 163 10 40 166 232 210 174 205 214 290 329 258 197 197 353 349 217 244 321 5 15 349 192 184 181 179 179
335 331 328 327 332 338 338 340 342 341 342 344 343 343 348 351 345 335 330 324 316 314 323 340 355 4 358 344 335 324 316 313 304 279 266 264 279 289 266 263 325 356 22 24 11 349 128 106 108 107 116 151 134 111 97 308 188 141 102 74 353 9 64 192 277 101 206 273 302 312 314 288 226 233 294 332 287 246 266 296 318 303 226 201 193 187 183
329 322 319 320 326 332 335 338 339 337 337 341 340 338 342 346 342 337 334 330 327 329 336 355 17 14 4 359 348 338 334 324 310 294 255 235 243 282 303 11 14 7 2 358 347 314 174 87 67 148 100 139 177 143 137 222 205 160 146 127 348 329 163 164 66 134 192 209 18 333 305 300 253 241 259 300 310 269 259 268 271 266 238 216 206 197 188
320 314 312 313 319 327 333 336 336 335 335 337 338 338 340 342 342 340 336 332 337 342 333 326 347 12 5 358 354 358 3 358 339 322 275 246 250 256 256 302 334 326 321 332 333 293 173 72 117 153 104 153 206 308 67 202 160 163 173 166 97 141 235 280 129 151 216 275 345 326 303 287 260 242 244 268 291 289 276 273 266 251 231 218 209 199 190
312 310 308 310 316 324 330 333 333 332 332 334 338 338 337 341 347 347 343 337 332 331 311 294 314 349 360 14 30 26 25 25 7 344 324 287 280 277 270 277 293 301 310 324 329 201 168 83 92 93 82 139 181 39 105 182 43 107 137 60 36 317 302 171 136 124 308 288 263 284 302 280 240 230 231 242 262 279 277 271 262 243 224 211 201 195 192
308 303 298 303 311 317 323 328 329 329 331 337 341 338 334 343 358 357 356 354 342 348 34 285 303 331 7 46 46 35 35 41 29 13 37 79 48 350 310 289 295 309 319 324 235 167 138 91 69 46 80 102 78 67 76 57 89 114 83 49 327 290 155 152 162 173 54 336 218 205 268 317 223 213 215 217 225 246 262 262 254 235 218 205 193 186 187
301 299 293 296 301 304 313 322 325 328 334 342 344 340 336 356 12 1 355 354 346 332 291 290 302 325 15 46 40 38 41 41 44 57 74 74 62 24 344 306 303 327 347 101 136 111 67 80 91 79 95 111 98 87 67 66 129 134 95 75 324 307 175 180 214 144 85 332 255 202 228 359 192 191 193 190 186 190 233 253 247 229 213 204 196 187 183
299 295 292 292 292 294 304 315 321 327 337 346 348 347 339 346 3 0 356 352 343 330 317 309 311 325 347 9 26 37 45 48 55 73 77 72 68 55 47 51 40 24 64 107 104 82 61 78 94 85 75 117 158 128 114 142 156 141 117 319 315 290 241 242 260 248 332 334 224 197 225 332 155 165 162 160 158 151 197 230 225 217 210 204 201 197 191
300 293 288 285 284 287 296 308 318 326 337 345 350 351 336 309 344 355 357 352 344 342 336 321 309 326 335 359 22 30 44 67 71 72 80 80 74 66 68 74 78 83 98 97 88 88 91 78 72 72 71 72 118 138 136 154 159 126 304 314 317 296 253 239 226 225 304 346 155 188 214 146 139 140 131 128 122 107 181 235 206 203 206 203 200 199 197
300 293 286 279 277 282 290 301 314 324 332 338 340 335 306 296 335 348 354 350 342 344 339 293 283 318 340 5 19 21 35 64 67 59 70 76 76 77 76 73 76 83 90 86 85 91 93 64 47 59 48 43 63 117 136 162 155 124 351 331 327 311 226 202 193 199 250 215 155 155 139 130 131 126 118 112 97 84 93 245 212 195 200 200 199 197 194
299 293 283 272 271 277 284 295 308 320 328 331 326 310 297 314 331 345 351 348 341 344 344 316 302 325 340 346 4 16 28 50 60 59 60 58 71 83 73 68 74 74 72 80 87 80 48 23 48 57 33 31 58 109 115 120 138 105 345 342 348 124 139 149 154 151 151 153 144 127 127 136 133 130 132 118 85 62 48 229 206 196 200 199 197 195 190
296 293 282 268 266 270 276 288 304 317 325 323 298 265 301 322 335 345 348 347 341 339 342 343 331 304 309 325 355 15 22 31 51 56 49 42 48 66 68 67 69 61 53 59 73 62 45 40 44 44 35 37 56 107 129 84 99 323 339 357 87 136 134 132 134 137 147 157 163 200 186 162 139 132 144 133 93 48 9 223 201 195 195 195 191 188 184
293 291 280 265 261 263 268 282 300 310 316 312 278 257 282 307 324 330 329 329 332 331 336 356 5 290 309 313 351 14 12 14 34 38 30 32 37 41 50 62 59 50 46 52 68 83 65 29 3 351 19 24 26 67 159 133 157 357 53 97 124 133 132 129 132 136 139 139 133 160 163 150 129 124 140 137 112 83 200 195 193 189 184 183 184 183 181
293 289 279 264 257 256 262 280 298 302 300 291 270 266 280 300 316 317 308 302 310 324 342 353 328 298 330 323 342 4 4 7 16 8 1 15 28 32 39 49 49 43 41 47 64 75 38 9 349 294 332 355 337 283 202 177 165 146 133 132 132 133 133 129 123 115 98 87 101 122 131 130 123 126 135 137 140 164 169 169 178 184 176 170 171 176 179
294 289 278 261 250 249 257 275 291 292 277 259 261 282 297 307 315 315 296 275 272 269 292 328 301 227 334 273 271 334 352 360 356 352 354 360 11 20 33 51 60 42 29 43 69 60 3 354 338 283 329 337 294 252 179 175 168 157 151 146 139 139 145 136 123 116 108 102 108 116 119 125 129 128 129 135 142 156 165 164 170 179 175 168 168 171 174
299 293 279 247 227 232 246 262 271 269 259 259 274 294 305 308 312 315 298 261 253 249 250 271 290 251 226 224 285 316 338 347 339 347 17 22 360 11 30 41 50 4 21 50 63 4 346 354 358 335 204 324 313 167 167 170 167 159 155 152 144 140 145 140 131 124 118 114 113 116 126 139 140 134 135 140 142 154 170 171 173 180 176 170 172 174 174
302 292 263 214 201 208 222 239 248 251 263 282 293 301 304 304 306 311 298 199 223 240 233 237 271 257 217 222 304 318 333 349 346 357 31 22 1 7 29 33 28 352 10 61 360 343 351 39 37 334 256 287 261 179 172 168 162 157 157 157 150 144 146 148 144 128 113 115 129 138 145 156 158 151 151 150 146 156 172 172 172 178 178 175 178 179 177
311 286 234 203 192 193 199 212 229 250 281 298 299 293 283 281 297 305 272 186 207 221 212 224 254 251 222 230 305 322 328 341 352 10 31 22 21 29 20 16 28 20 25 83 7 352 354 53 11 339 246 321 259 183 174 168 163 163 162 154 148 149 153 160 154 120 87 83 112 118 118 147 165 162 163 161 151 148 162 168 165 171 177 179 182 181 180
313 291 217 198 193 194 201 214 233 268 299 299 287 271 252 253 257 242 169 39 239 207 203 236 269 274 259 246 266 319 333 328 328 342 31 28 18 17 26 32 29 18 16 39 5 1 360 349 349 357 86 14 184 176 173 170 167 166 161 151 151 158 165 173 169 139 82 67 124 114 92 94 137 152 159 162 153 143 147 156 159 165 174 179 181 182 182
349 354 306 232 222 214 212 217 232 257 264 230 237 269 265 247 251 239 202 22 293 226 243 287 295 299 285 250 235 258 311 319 305 291 312 28 12 16 53 12 353 36 73 330 353 21 73 105 3 334 257 272 169 171 174 174 171 166 158 150 153 164 174 184 185 171 138 129 160 143 116 99 107 134 141 141 140 140 139 140 145 155 167 174 178 181 183
345 338 315 274 247 228 212 206 209 220 221 180 189 292 294 266 280 264 207 186 291 316 346 325 303 302 305 282 253 257 289 323 309 289 286 34 17 36 70 345 357 68 74 318 336 28 62 19 330 285 255 235 183 178 179 179 175 167 160 153 152 161 175 185 186 173 150 143 156 155 136 114 103 121 130 125 127 132 129 129 138 148 161 172 176 177 180
331 328 322 296 237 186 179 183 184 186 180 72 119 252 304 316 316 305 204 263 321 352 360 341 326 319 317 308 285 265 266 296 325 339 62 59 21 48 69 34 19 48 40 319 355 42 46 323 261 261 256 233 190 186 184 181 177 168 162 161 158 156 160 166 168 174 178 176 171 163 150 130 112 117 125 124 126 127 121 119 127 137 150 166 174 176 178
321 317 324 328 165 153 158 177 179 178 196 254 166 183 240 296 301 12 30 348 327 335 345 341 332 323 324 330 323 280 243 278 346 46 77 58 31 55 70 27 354 351 329 332 21 16 299 243 244 256 270 281 250 200 187 182 178 172 167 168 167 164 161 157 149 163 179 175 171 170 164 148 131 125 125 124 126 129 127 124 125 128 137 153 167 174 177
335 330 16 44 79 157 165 178 175 172 198 232 180 163 161 169 198 204 15 344 315 310 327 335 327 302 303 323 330 294 233 344 16 47 52 47 51 62 58 8 34 61 25 5 23 354 332 292 252 268 291 300 254 199 188 184 182 178 175 171 169 169 168 158 140 129 146 154 161 175 176 165 153 142 134 128 129 132 133 133 132 132 136 145 157 169 174
6 8 54 69 304 223 174 173 295 181 181 346 12 360 241 128 113 71 8 348 329 318 322 329 323 298 297 320 332 308 322 351 75 61 25 61 93 60 277 228 39 39 34 21 345 295 295 281 278 315 333 336 191 181 184 183 181 181 181 176 169 166 164 157 145 129 130 149 159 170 176 176 173 164 149 140 138 138 139 139 138 138 141 145 152 162 167
14 8 40 64 283 289 25 68 85 71 53 40 34 32 52 119 94 40 11 358 348 337 331 330 319 283 290 317 319 305 340 27 89 32 360 71 138 10 14 42 20 52 79 334 288 268 252 276 313 334 344 354 165 173 177 179 179 180 182 176 169 166 164 159 151 148 167 181 177 165 159 174 183 180 169 158 150 146 146 145 141 140 142 146 151 157 161
13 9 27 61 189 205 27 73 99 77 57 55 56 54 63 85 54 18 10 6 360 352 344 340 332 246 268 330 339 273 351 40 83 59 10 80 105 355 11 19 341 268 209 227 253 235 242 310 329 341 354 56 162 172 176 177 178 179 178 176 174 171 167 163 161 173 189 194 187 175 167 174 178 178 174 165 154 147 148 149 147 145 146 149 154 160 165
21 38 58 96 154 114 24 53 125 62 41 51 56 49 48 47 29 12 8 8 5 1 1 15 21 323 264 332 10 220 302 22 88 114 38 50 94 181 64 59 326 308 257 210 225 261 299 317 331 347 11 110 162 172 176 179 180 179 177 176 174 168 162 162 172 178 176 178 178 176 174 170 164 163 166 164 156 150 148 149 151 153 156 158 161 162 164
67 70 59 69 122 12 15 49 125 31 23 35 37 29 29 29 21 12 10 8 4 4 35 61 22 6 296 355 32 83 357 352 112 119 47 49 154 142 126 242 241 249 230 226 256 302 320 327 344 13 37 112 162 171 176 180 182 180 177 175 172 165 160 164 175 171 164 164 168 170 168 162 157 156 160 164 160 154 149 149 154 159 163 168 171 167 165
133 101 73 66 61 29 27 63 105 92 35 28 17 11 14 18 13 8 6 5 4 11 51 28 355 353 68 49 44 43 328 335 75 92 360 241 169 134 123 238 221 224 261 289 314 333 339 347 31 53 53 105 164 173 176 178 180 181 179 175 171 166 163 167 174 168 158 156 161 166 167 163 160 158 161 162 160 156 154 155 159 162 166 175 179 174 169
114 103 82 70 70 70 75 88 97 105 100 8 352 351 359 6 2 359 1 8 16 23 12 333 336 47 70 36 8 313 322 343 38 34 280 214 184 178 206 227 254 283 294 309 327 339 343 4 69 68 74 105 157 175 176 175 179 182 180 174 170 167 165 169 174 169 155 152 157 165 172 172 168 166 166 164 163 164 166 167 165 163 166 176 182 178 173